Погода в Понтонном

Россия / Санкт-Петербург и Ленинградская область     59°46′57″N   30°38′11″E
темп.,
°C
ветер,
м/с
пор.,
м/с
влажн.,
%
обл.,
%
осадки,
мм/ч
давл.,
гПа
погр.,
м
1 марта, пн
пн100:00−1з239652 0.0 102064
03:00−2юз379527 0.0 1021178
06:00+1зюз3109652 0.0 1019399
09:00+1з4119476 0.0 1019469
12:00+2з51290100 0.0 1018594
15:00+3з51387100 0.0 1017582
18:00+2зюз41285100 0.0 1014512
21:00+2з5138999 0.0 1013714
2 марта, вт
вт200:00+1зсз41291100 0.0 1011662
03:000зсз4129278 0.0 1012477
06:00−1зсз4129354 0.0 1011486
09:00−1зсз4139045 0.0 1011566
12:00+1зсз5108334 0.0 1011758
15:00+2сз597752 0.0 10131002
18:00+1сз4128126 0.0 1015756
21:00−1сз4138613 0.0 1017566
3 марта, ср
ср300:00−1зсз411870 0.0 1018453
03:00−2зсз412880 0.0 1018471
06:00−2зсз412900 0.0 1016471
09:00−2зсз5128913 0.0 1017561
12:000зсз5108423 0.0 1016602
15:00+1з5108358 0.0 1014666
18:00+1з41282100 0.0 1010786
21:00+1з6159198 0.6 10061105
4 марта, чт
чт400:00+1з61496100 0.1 1001838
03:00+1зсз51292100 0.7 1000767
06:00−1зсз4994100 0.4 999632
09:00−2ссз4894100 2.0 998615
12:00−2сз5881100 0.3 1000991
15:00−2сз5881100 1.0 1002968
18:00−4ссз4885100 0.4 1004969
21:00−5ссз288498 0.4 1006525
5 марта, пт
пт500:00−6зсз249182 0.0 1007131
03:00−7зсз249357 0.0 1007103
06:00−7сз139259 0.0 1008108
09:00−7ссз149161 0.0 1009262
12:00−5ссз23678 0.0 1011776
15:00−4сз235911 0.0 10121176
18:00−6с138191 0.1 1013267
21:00−8всв119294 0.1 1015106